When you browse on this site, cookies collect data to enhance your experience and personalize the content and advertising you see.
Visit our Privacy Policy to learn more. By continuing to use the site, you agree to this use of cookies and data.

Hourly Weather Darwin

Today, 9 July, Thursday

Time Temperature Precipitation Wind Pressure Humidity
00:00 +20°C° 0 mm 3 mps 759 mmHg 58%
01:00 +20°C° 0 mm 3 mps 759 mmHg 57%
02:00 +19°C° 0 mm 4 mps 759 mmHg 56%
03:00 +19°C° 0 mm 4 mps 759 mmHg 52%
04:00 +19°C° 0 mm 4 mps 759 mmHg 58%
05:00 +18°C° 0 mm 4 mps 759 mmHg 64%
06:00 +16°C° 0 mm 5 mps 759 mmHg 70%
07:00 +19°C° 0 mm 5 mps 759 mmHg 65%
08:00 +21°C° 0 mm 5 mps 760 mmHg 59%
09:00 +25°C° 0 mm 5 mps 760 mmHg 54%
10:00 +28°C° 0 mm 5 mps 760 mmHg 46%
11:00 +30°C° 0 mm 4 mps 759 mmHg 38%
12:00 +34°C° 0 mm 4 mps 759 mmHg 30%
13:00 +34°C° 0 mm 4 mps 758 mmHg 30%
14:00 +35°C° 0 mm 5 mps 757 mmHg 30%
15:00 +36°C° 0 mm 4 mps 757 mmHg 30%
16:00 +33°C° 0 mm 4 mps 757 mmHg 39%
17:00 +30°C° 0 mm 3 mps 757 mmHg 47%
18:00 +28°C° 0 mm 2 mps 757 mmHg 56%
19:00 +26°C° 0 mm 2 mps 757 mmHg 61%
20:00 +25°C° 0 mm 1 mps 758 mmHg 66%
21:00 +23°C° 0 mm 1 mps 758 mmHg 68%
22:00 +23°C° 0 mm 1 mps 759 mmHg 70%
23:00 +22°C° 0 mm 1 mps 759 mmHg 71%

Tomorrow, 10 July, Friday

Time Temperature Precipitation Wind Pressure Humidity
00:00 +21°C° 0 mm 2 mps 759 mmHg 73%
01:00 +20°C° 0 mm 2 mps 759 mmHg 69%
02:00 +20°C° 0 mm 2 mps 759 mmHg 66%
03:00 +20°C° 0 mm 2 mps 758 mmHg 62%
04:00 +20°C° 0 mm 3 mps 759 mmHg 69%
05:00 +20°C° 0 mm 3 mps 759 mmHg 76%
06:00 +20°C° 0 mm 3 mps 759 mmHg 82%
07:00 +22°C° 0 mm 4 mps 759 mmHg 74%
08:00 +25°C° 0 mm 4 mps 760 mmHg 67%
09:00 +27°C° 0 mm 4 mps 760 mmHg 59%
10:00 +29°C° 0 mm 4 mps 759 mmHg 51%
11:00 +33°C° 0 mm 3 mps 759 mmHg 44%
12:00 +36°C° 0 mm 3 mps 759 mmHg 36%
13:00 +36°C° 0 mm 3 mps 758 mmHg 36%
14:00 +36°C° 0 mm 3 mps 757 mmHg 36%
15:00 +37°C° 0 mm 4 mps 756 mmHg 37%
16:00 +35°C° 0 mm 3 mps 757 mmHg 44%
17:00 +31°C° 0 mm 3 mps 757 mmHg 52%
18:00 +29°C° 0 mm 2 mps 757 mmHg 60%
19:00 +28°C° 0 mm 2 mps 758 mmHg 64%
20:00 +27°C° 0 mm 2 mps 758 mmHg 67%
21:00 +26°C° 0 mm 2 mps 758 mmHg 70%
22:00 +26°C° 0 mm 2 mps 759 mmHg 73%
23:00 +25°C° 0 mm 1 mps 759 mmHg 75%

Day after tomorrow, 11 July, Saturday

Time Temperature Precipitation Wind Pressure Humidity
00:00 +24°C° 0 mm 1 mps 759 mmHg 77%
01:00 +24°C° 0 mm 2 mps 759 mmHg 74%
02:00 +24°C° 0 mm 2 mps 759 mmHg 71%
03:00 +24°C° 0 mm 3 mps 758 mmHg 68%
04:00 +22°C° 0 mm 3 mps 758 mmHg 71%
05:00 +22°C° 0 mm 4 mps 758 mmHg 74%
06:00 +21°C° 0 mm 4 mps 758 mmHg 77%
07:00 +25°C° 0 mm 5 mps 759 mmHg 67%
08:00 +27°C° 0 mm 5 mps 759 mmHg 58%
09:00 +30°C° 0 mm 6 mps 759 mmHg 49%
10:00 +32°C° 0 mm 5 mps 759 mmHg 45%
11:00 +34°C° 0 mm 5 mps 758 mmHg 41%
12:00 +36°C° 0 mm 4 mps 758 mmHg 37%
13:00 +37°C° 0 mm 4 mps 757 mmHg 37%
14:00 +37°C° 0 mm 4 mps 756 mmHg 36%
15:00 +38°C° 0 mm 4 mps 756 mmHg 35%
16:00 +35°C° 0 mm 3 mps 756 mmHg 44%
17:00 +33°C° 0 mm 3 mps 756 mmHg 52%
18:00 +30°C° 0 mm 2 mps 756 mmHg 61%
19:00 +29°C° 0 mm 2 mps 757 mmHg 66%
20:00 +27°C° 0 mm 2 mps 757 mmHg 70%
21:00 +26°C° 0 mm 2 mps 758 mmHg 75%
22:00 +26°C° 0 mm 2 mps 758 mmHg 73%
23:00 +26°C° 0 mm 2 mps 758 mmHg 72%

12 July, Sunday

Time Temperature Precipitation Wind Pressure Humidity
00:00 +27°C° 0 mm 1 mps 758 mmHg 70%
01:00 +26°C° 0 mm 1 mps 758 mmHg 72%
02:00 +25°C° 0 mm 1 mps 758 mmHg 73%
03:00 +25°C° 0 mm 1 mps 757 mmHg 74%
04:00 +24°C° 0 mm 2 mps 758 mmHg 75%
05:00 +24°C° 0 mm 3 mps 758 mmHg 75%
06:00 +24°C° 0 mm 3 mps 758 mmHg 75%
07:00 +25°C° 0 mm 4 mps 759 mmHg 67%
08:00 +27°C° 0 mm 4 mps 759 mmHg 58%
09:00 +28°C° 0 mm 5 mps 760 mmHg 49%
10:00 +30°C° 0 mm 5 mps 759 mmHg 44%
11:00 +33°C° 0 mm 5 mps 759 mmHg 39%
12:00 +35°C° 0 mm 4 mps 758 mmHg 34%
13:00 +36°C° 0 mm 4 mps 758 mmHg 33%
14:00 +37°C° 0 mm 3 mps 757 mmHg 32%
15:00 +37°C° 0 mm 3 mps 756 mmHg 31%
16:00 +35°C° 0 mm 2 mps 756 mmHg 36%
17:00 +34°C° 0 mm 2 mps 756 mmHg 41%
18:00 +31°C° 0 mm 1 mps 756 mmHg 46%
19:00 +30°C° 0 mm 2 mps 757 mmHg 44%
20:00 +30°C° 0 mm 2 mps 758 mmHg 42%
21:00 +30°C° 0 mm 2 mps 759 mmHg 41%
22:00 +29°C° 0 mm 3 mps 759 mmHg 40%
23:00 +27°C° 0 mm 5 mps 759 mmHg 39%

13 July, Monday

Time Temperature Precipitation Wind Pressure Humidity
00:00 +26°C° 0 mm 6 mps 759 mmHg 38%
01:00 +24°C° 0 mm 6 mps 759 mmHg 40%
02:00 +23°C° 0 mm 7 mps 759 mmHg 42%
03:00 +22°C° 0 mm 7 mps 759 mmHg 44%
04:00 +22°C° 0 mm 8 mps 759 mmHg 41%
05:00 +21°C° 0 mm 8 mps 760 mmHg 39%
06:00 +21°C° 0 mm 8 mps 760 mmHg 37%
07:00 +22°C° 0 mm 8 mps 760 mmHg 33%
08:00 +23°C° 0 mm 8 mps 761 mmHg 29%
09:00 +26°C° 0 mm 8 mps 761 mmHg 25%
10:00 +28°C° 0 mm 7 mps 761 mmHg 24%
11:00 +30°C° 0 mm 6 mps 760 mmHg 23%
12:00 +33°C° 0 mm 6 mps 760 mmHg 22%
13:00 +34°C° 0 mm 5 mps 759 mmHg 22%
14:00 +35°C° 0 mm 4 mps 758 mmHg 22%
15:00 +36°C° 0 mm 4 mps 757 mmHg 22%
16:00 +34°C° 0 mm 3 mps 757 mmHg 26%
17:00 +31°C° 0 mm 2 mps 758 mmHg 31%
18:00 +28°C° 0 mm 1 mps 758 mmHg 35%
19:00 +27°C° 0 mm 1 mps 758 mmHg 36%
20:00 +26°C° 0 mm 2 mps 759 mmHg 37%
21:00 +24°C° 0 mm 2 mps 760 mmHg 38%
22:00 +24°C° 0 mm 3 mps 760 mmHg 38%
23:00 +22°C° 0 mm 4 mps 760 mmHg 38%

14 July, Tuesday

Time Temperature Precipitation Wind Pressure Humidity
00:00 +22°C° 0 mm 6 mps 760 mmHg 38%
01:00 +21°C° 0 mm 6 mps 760 mmHg 40%
02:00 +20°C° 0 mm 6 mps 760 mmHg 43%
03:00 +20°C° 0 mm 6 mps 759 mmHg 45%
04:00 +19°C° 0 mm 6 mps 759 mmHg 46%
05:00 +19°C° 0 mm 6 mps 760 mmHg 47%
06:00 +19°C° 0 mm 6 mps 760 mmHg 47%
07:00 +20°C° 0 mm 6 mps 760 mmHg 43%
08:00 +22°C° 0 mm 7 mps 760 mmHg 39%
09:00 +24°C° 0 mm 7 mps 761 mmHg 35%
10:00 +27°C° 0 mm 6 mps 760 mmHg 32%
11:00 +30°C° 0 mm 5 mps 760 mmHg 28%
12:00 +33°C° 0 mm 4 mps 759 mmHg 25%
13:00 +34°C° 0 mm 4 mps 759 mmHg 26%
14:00 +35°C° 0 mm 3 mps 758 mmHg 26%
15:00 +36°C° 0 mm 2 mps 757 mmHg 27%
16:00 +32°C° 0 mm 2 mps 757 mmHg 35%
17:00 +30°C° 0 mm 2 mps 757 mmHg 43%
18:00 +27°C° 0 mm 2 mps 758 mmHg 51%
19:00 +26°C° 0 mm 2 mps 758 mmHg 54%
20:00 +25°C° 0 mm 2 mps 758 mmHg 57%
21:00 +24°C° 0 mm 2 mps 759 mmHg 61%
22:00 +23°C° 0 mm 2 mps 759 mmHg 60%
23:00 +22°C° 0 mm 3 mps 759 mmHg 59%
Show more